Home   Weather   Haarlem   Past weeks

Flag for Netherlands Past Weather in Haarlem, Netherlands — Yesterday and Last 2 Weeks

Now
57 °F

Passing clouds.


Feels Like: 56 °F
Forecast: 52 / 68 °F
Wind: 7 mph from Southwest

Location: Amsterdam Schiphol Airport

Current Time: Aug 21, 2017 at 1:21:56 am

Latest Report: Aug 21, 2017 at 12:25 am


Visibility: N/A

Pressure: 30.21 "Hg

Humidity: 82%

Dew Point: 52 °F

Location of HaarlemLocation

Past Weather in Haarlem — Graph

°F

Haarlem Temperature Yesterday

Maximum temperature yesterday: 66 °F (at 11:55 am)
Minimum temperature yesterday: 55 °F (at 2:25 am)
Average temperature yesterday: 61 °F

High & Low Weather Summary for the Past Weeks

 TemperatureHumidityPressure
High75 °F (Aug 14, 3:25 pm)100% (Aug 9, 7:25 am)30.21 "Hg (Aug 9, 7:25 am)
Low52 °F (Aug 6, 2:55 am)50% (Aug 14, 3:25 pm)29.74 "Hg (Aug 8, 2:25 pm)
Average62 °F80%30.01 "Hg
* Reported Aug 5 11:25 pm — Aug 20 11:55 pm, Haarlem. Weather by CustomWeather, © 2017

Note: Actual official high and low records may vary slightly from our data, if they occured in-between our weather recording intervals... More about our weather records

Advertising

Haarlem Weather History for the Previous 24 Hours

Scroll right to see more
 ConditionsComfort  
Time TempWeatherWind HumidityBarometerVisibility
11:55 pm
Sun, Aug 20
59 °FPassing clouds.6 mph77%30.21 "HgN/A
11:25 pm59 °FPassing clouds.7 mph77%30.21 "HgN/A
10:55 pm59 °FPassing clouds.7 mph77%30.21 "HgN/A
10:25 pm61 °FPassing clouds.8 mph72%30.21 "HgN/A
9:55 pm61 °FPassing clouds.7 mph72%30.21 "HgN/A
9:25 pm61 °FLight rain. Passing clouds.7 mph72%30.21 "HgN/A
8:55 pm61 °FScattered clouds.6 mph77%30.21 "HgN/A
8:25 pm63 °FLight rain. Passing clouds.10 mph68%30.21 "HgN/A
7:55 pm63 °FLight rain. Passing clouds.8 mph68%30.21 "HgN/A
7:25 pm63 °FPassing clouds.10 mph68%30.21 "HgN/A
6:55 pm63 °FPassing clouds.14 mph68%30.21 "HgN/A
6:25 pm63 °FPassing clouds.16 mph64%30.21 "HgN/A
5:55 pm64 °FPassing clouds.16 mph64%30.21 "HgN/A
5:25 pm64 °FPassing clouds.20 mph64%30.21 "HgN/A
4:55 pm64 °FPassing clouds.18 mph68%30.21 "HgN/A
4:25 pm64 °FPassing clouds.21 mph64%30.21 "HgN/A
3:55 pm64 °FPassing clouds.22 mph64%30.21 "HgN/A
3:25 pm66 °FPassing clouds.20 mph64%30.18 "HgN/A
2:55 pm64 °FPassing clouds.20 mph64%30.18 "HgN/A
2:25 pm66 °FPassing clouds.21 mph64%30.18 "HgN/A
1:55 pm66 °FPassing clouds.20 mph64%30.18 "HgN/A
1:25 pm66 °FPassing clouds.20 mph64%30.18 "HgN/A
12:55 pm66 °FPassing clouds.18 mph64%30.18 "HgN/A
12:25 pm66 °FPassing clouds.20 mph64%30.15 "HgN/A
11:55 am66 °FPassing clouds.18 mph64%30.15 "HgN/A
11:25 am64 °FPassing clouds.18 mph64%30.15 "HgN/A
10:55 am64 °FPassing clouds.18 mph68%30.15 "HgN/A
10:25 am64 °FPassing clouds.18 mph68%30.15 "HgN/A
9:55 am63 °FPassing clouds.17 mph73%30.12 "HgN/A
9:25 am63 °FPassing clouds.15 mph73%30.12 "HgN/A
8:55 am61 °FPassing clouds.12 mph77%30.12 "HgN/A
8:25 am59 °FPassing clouds.8 mph82%30.12 "HgN/A
7:55 am59 °FPassing clouds.10 mph82%30.09 "HgN/A
7:25 am59 °FPassing clouds.9 mph82%30.09 "HgN/A
6:55 am59 °FPassing clouds.9 mph77%30.09 "HgN/A
6:25 am57 °FPassing clouds.7 mph82%30.09 "HgN/A
5:55 am55 °FPassing clouds.9 mph82%30.09 "HgN/A
5:25 am57 °FPassing clouds.9 mph82%30.09 "HgN/A
4:55 am57 °FPassing clouds.9 mph77%30.07 "HgN/A
4:25 am57 °FPassing clouds.8 mph77%30.07 "HgN/A
3:55 am57 °FPassing clouds.9 mph77%30.07 "HgN/A
3:25 am57 °FPassing clouds.9 mph77%30.07 "HgN/A
2:55 am57 °FPassing clouds.12 mph77%30.07 "HgN/A
2:25 am55 °FPassing clouds.8 mph94%30.07 "HgN/A
1:55 am57 °FPassing clouds.6 mph88%30.07 "HgN/A
1:25 am57 °FPassing clouds.9 mph94%30.07 "HgN/A
Weather by CustomWeather, © 2017

See weather overviewHow to use our weather pages